Location: Novokuznetsk
(53.7500°N, 87.1000°E)
Time: 02:27:28
(UTC+06:00)

ISS - Pass Details

Date: 19 July 2018
Orbit: 402 x 408 km, 51.6° (Epoch: 20 July)

Event Time Altitude Azimuth Distance (km) Brightness Sun altitude
Rises 22:24:28 0° 222° (SW) 2,315 -0.2 -11.6°
Reaches altitude 10° 22:26:46 10° 209° (SSW) 1,459 -1.3 -11.7°
Maximum altitude 22:29:29 25° 152° (SSE) 876 -2.8 -11.9°
Drops below altitude 10° 22:32:14 10° 96° (E) 1,468 -1.3 -12.1°
Sets 22:34:33 0° 82° (E) 2,332 -0.1 -12.2°
